Location: ??????????
(54.8537°N, 38.8755°E)
Time: 22:46:04
(UTC+00:00)

Vanguard 1 Rocket - All Passes

Search period start: 11 September 2024 00:00
Search period end: 21 September 2024 00:00
Orbit: 649 x 4220 km, 34.3° (Epoch: 11 September)

Date Brightness Start Highest point End Pass type
(mag) Time Alt. Az. Time Alt. Az. Time Alt. Az.
11 Sep - 01:05:45 10° SSW 01:20:18 29° SE 01:39:25 10° E visible
11 Sep - 03:28:18 10° SW 03:47:30 43° S 04:10:10 10° ESE daylight
11 Sep - 05:54:59 10° WSW 06:16:18 40° SSW 06:36:51 10° SE daylight
11 Sep - 08:26:03 10° W 08:43:15 24° SW 08:58:05 10° S daylight
11 Sep - 23:56:30 10° S 00:07:38 20° SE 00:22:03 10° E visible
12 Sep - 02:16:20 10° SW 02:33:16 38° SSE 02:55:16 10° ESE visible
12 Sep - 04:41:15 10° WSW 05:01:41 43° S 05:23:53 10° SE daylight
12 Sep - 07:09:57 10° W 07:29:49 31° SSW 07:47:57 10° SSE daylight
12 Sep - 09:47:57 10° WSW 09:54:51 12° WSW 10:01:19 10° SW daylight
12 Sep - 22:51:18 10° SE 22:55:47 11° ESE 23:00:47 10° ESE visible
13 Sep - 01:05:20 10° SSW 01:19:42 31° SSE 01:39:26 10° E visible
13 Sep - 03:28:23 10° WSW 03:47:04 43° S 04:09:57 10° ESE daylight
13 Sep - 05:55:13 10° WSW 06:15:44 38° SSW 06:36:18 10° SE daylight
13 Sep - 08:27:00 10° W 08:42:21 20° SW 08:56:16 10° S daylight
13 Sep - 23:55:34 10° S 00:06:57 23° SE 00:22:29 10° E visible
14 Sep - 02:16:21 10° SW 02:32:49 40° SSE 02:55:04 10° ESE visible
14 Sep - 04:41:29 10° WSW 05:01:14 42° S 05:23:28 10° SE daylight
14 Sep - 07:10:26 10° W 07:29:05 28° SW 07:46:48 10° S daylight
14 Sep - 22:48:12 10° SSE 22:55:00 14° SE 23:03:20 10° E visible
15 Sep - 01:05:10 10° SSW 01:19:12 34° SSE 01:39:18 10° E visible
15 Sep - 03:28:36 10° WSW 03:46:40 43° S 04:09:34 10° ESE daylight
15 Sep - 05:55:34 10° W 06:15:08 35° SSW 06:35:30 10° SSE daylight
15 Sep - 08:28:34 10° W 08:41:25 17° SW 08:53:35 10° SSW daylight
15 Sep - 23:55:01 10° S 00:06:23 25° SE 00:22:37 10° E visible
16 Sep - 02:16:31 10° SW 02:32:26 40° SSE 02:54:43 10° ESE visible
16 Sep - 04:41:50 10° WSW 05:00:46 39° SSW 05:22:50 10° SE daylight
16 Sep - 07:11:11 10° W 07:28:17 25° SW 07:45:11 10° S daylight
16 Sep - 22:46:36 10° SSE 22:54:22 16° SE 23:04:31 10° E visible
17 Sep - 01:05:12 10° SW 01:18:48 35° SSE 01:39:02 10° ESE visible
17 Sep - 03:28:57 10° WSW 03:46:19 41° S 04:09:01 10° SE daylight
17 Sep - 05:56:06 10° W 06:14:30 32° SSW 06:34:20 10° SSE daylight
17 Sep - 08:31:26 10° WSW 08:40:27 13° SW 08:49:18 10° SSW daylight
17 Sep - 23:54:47 10° SSW 00:05:56 28° SE 00:22:34 10° E visible
18 Sep - 02:16:49 10° SW 02:32:08 40° S 02:54:14 10° ESE visible
18 Sep - 04:42:17 10° WSW 05:00:18 37° SSW 05:21:56 10° SE daylight
18 Sep - 07:12:20 10° W 07:27:29 21° SW 07:42:57 10° S daylight
18 Sep - 22:45:42 10° S 22:53:52 19° SE 23:05:06 10° E visible
19 Sep - 01:05:24 10° SW 01:18:31 36° SSE 01:38:38 10° ESE visible
19 Sep - 03:29:23 10° WSW 03:45:59 40° S 04:08:17 10° SE daylight
19 Sep - 05:56:50 10° W 06:13:53 28° SW 06:32:47 10° SSE daylight
19 Sep - 23:54:47 10° SSW 00:05:37 29° SSE 00:22:21 10° E visible
20 Sep - 02:17:13 10° WSW 02:31:55 40° S 02:53:37 10° ESE visible
20 Sep - 04:42:53 10° WSW 04:59:51 34° SSW 05:20:45 10° SSE daylight
20 Sep - 07:14:10 10° WSW 07:26:41 17° SW 07:39:45 10° SSW daylight
20 Sep - 22:45:14 10° S 22:53:29 21° SE 23:05:22 10° E visible
